Cumshewa Island, British Columbia

11:08 PM PDT on September 22, 2017 (GMT -0700)
Cumshewa Island

Weather History for CWZL - November, 2013

Change the Weather History Date:

Friday, November 22, 2013

  Actual Average (CYZP) Record (CYZP)
Temperature  
Mean Temperature 47 °F -  
Max Temperature 48 °F 44 °F 53 °F (2005)
Min Temperature 46 °F 36 °F 26 °F (1996)
Degree Days  
Heating Degree Days 18    
Moisture  
Dew Point 42 °F    
Average Humidity 79    
Maximum Humidity 85    
Minimum Humidity 71    
Precipitation  
Precipitation 0.00 in - - ()
Sea Level Pressure  
Sea Level Pressure 30.33 in    
Wind  
Wind Speed 24 mph ()    
Max Wind Speed 40 mph    
Max Gust Speed 47 mph    
Averages and records for this station are not official NWS values.
T = Trace of Precipitation, MM = Missing Value Source: Averaged Metar Reports

Daily Weather History Graph

Daily Weather History Graph

Search for Another Location

Airport or City:

Trip Planner

Search our weather history database for the weather conditions in past years. The results will help you decide how hot, cold, wet, or windy it might be!

Date:

Astronomy

Nov. 22, 2013 Rise Set
Actual Time 8:23 AM PST 4:41 PM PST
Civil Twilight 7:43 AM PST 5:21 PM PST
Nautical Twilight 7:00 AM PST 6:04 PM PST
Astronomical Twilight 6:19 AM PST 6:45 PM PST
Moon 9:32 PM PST (11/22) 12:00 PM PST (11/22)
Length of Visible Light 9h 37m
Length of Day
8h 18m
Waning Gibbous, 77% of the Moon is Illuminated
Nov 22
Waning Gibbous
Nov 25
Last Quarter
Dec 2
New
Dec 9
First Quarter
Dec 17
Full

Hourly Weather History & Observations

Time (PST) Temp. Windchill Dew Point Humidity Pressure Visibility Wind Dir Wind Speed Gust Speed Precip Events Conditions
12:00 AM 46.8 °F - 41.4 °F 81% 30.48 in - South 15.0 mph - N/A   Unknown
1:00 AM 47.8 °F - 41.4 °F 78% 30.48 in - South 18.4 mph - N/A   Unknown
2:00 AM 47.7 °F - 41.5 °F 79% 30.48 in - South 20.7 mph - N/A   Unknown
3:00 AM 47.3 °F - 41.5 °F 80% 30.48 in - South 26.5 mph - N/A   Unknown
4:00 AM 47 °F - 42 °F 76% 30.47 in - South 20.7 mph - -  
4:00 AM 46.9 °F - 41.7 °F 82% 30.47 in - South 20.7 mph - N/A   Unknown
5:00 AM 47.1 °F - 40.5 °F 78% 30.45 in - SSE 29.9 mph - N/A   Unknown
6:00 AM 46.9 °F - 40.1 °F 77% 30.44 in - SSE 31.1 mph - N/A   Unknown
7:00 AM 47.1 °F - 40.5 °F 78% 30.42 in - SSE 27.6 mph - N/A   Unknown
8:00 AM 46.2 °F 36.9 °F 40.8 °F 81% 30.41 in - SSE 29.9 mph 35.7 mph N/A   Unknown
9:00 AM 47.7 °F - 40.5 °F 76% 30.39 in - SSE 32.2 mph 38.0 mph N/A   Unknown
10:00 AM 47 °F - 41 °F 74% 30.39 in - SSE 28.8 mph - -  
10:00 AM 47.3 °F - 41.4 °F 80% 30.39 in - SSE 28.8 mph - N/A   Unknown
11:00 AM 48.0 °F - 41.4 °F 78% 30.38 in - SSE 28.8 mph 35.7 mph N/A   Unknown
12:00 PM 48.2 °F - 40.6 °F 75% 30.36 in - SSE 27.6 mph - N/A   Unknown
1:00 PM 48.2 °F - 40.8 °F 76% 30.34 in - SSE 26.5 mph - N/A   Unknown
2:00 PM 48.4 °F - 41.7 °F 78% 30.30 in - SSE 33.4 mph 40.3 mph N/A   Unknown
3:00 PM 47.8 °F - 41.7 °F 79% 30.27 in - SSE 33.4 mph - N/A   Unknown
4:00 PM 48 °F - 42 °F 71% 30.27 in - South 28.8 mph - -  
4:00 PM 48.2 °F - 41.5 °F 78% 30.27 in - South 28.8 mph - N/A   Unknown
5:00 PM 48.2 °F - 43.0 °F 82% 30.25 in - SSE 28.8 mph 34.5 mph N/A   Unknown
6:00 PM 48.4 °F - 42.6 °F 80% 30.22 in - SSE 32.2 mph 38.0 mph N/A   Unknown
7:00 PM 48.2 °F - 43.5 °F 84% 30.21 in - SSE 34.5 mph - N/A   Unknown
8:00 PM 48.4 °F - 43.7 °F 84% 30.17 in - SSE 34.5 mph - N/A   Unknown
9:00 PM 48.4 °F - 43.5 °F 83% 30.15 in - SSE 33.4 mph 39.1 mph N/A   Unknown
10:00 PM 48 °F - 44 °F 79% 30.11 in - SSE 39.1 mph - -  
10:00 PM 48.2 °F - 43.5 °F 84% 30.11 in - SSE 39.1 mph - N/A   Unknown
11:00 PM 48.4 °F - 44.1 °F 85% 30.07 in - SSE 40.3 mph 47.2 mph N/A   Unknown